ラーセン彗星

P/2004 H3 ( Larsen )

English version
Home page
Updated on July 17, 2004

---------------------------------------------------------------------

・ プロフィール

発見日 2004年4月22日
発見光度 19.2等
発見者 J. A. Larsen (Lunar and Planetary Laboratory)

・ 軌道要素

T 2004 Mar. 12.9259 TT                                  MPC
q   2.437353             (2000.0)            P               Q
n   0.1282522      Peri.  346.4911      -0.8727630      +0.4007208
a   3.894271       Node   220.9738      -0.3989951      -0.9146068
e   0.374118       Incl.   25.1586      -0.2812252      +0.0540115
P   7.68
>From 87 observations 2004 Apr. 22-June 13.

・ 星図

・ 光度変化

        m1 = -14 + 5 logΔ + 80 log r

---------------------------------------------------------------------

軌道要素はM.P.E.C. 2004-M16に掲載されたものです。
星図は StellaNavigator Ver.2.0 for Windows (アストロアーツ 編著 / アスキー出版局刊) で作成したものです。
光度グラフはComet for Windowsで作成したものです。

---------------------------------------------------------------------

Copyright(C) Seiichi Yoshida (comet@aerith.net). All rights reserved.